Chicago Executive, IL

3:43 AM CDT on April 26, 2018 (GMT -0500)
Chicago Executive

Weather History for KPWK - March, 2014

Change the Weather History Date:

Sunday, March 9, 2014

  Actual Average Record
Temperature  
Mean Temperature 29 °F 35 °F  
Max Temperature 42 °F 43 °F 64 °F (2000)
Min Temperature 16 °F 27 °F 6 °F (2003)
Degree Days  
Heating Degree Days 36 30  
Month to date heating degree days 402 280  
Since 1 July heating degree days 5761 5018  
Cooling Degree Days 0 0  
Month to date cooling degree days 0 0  
Year to date cooling degree days 0 0  
Moisture  
Dew Point 22 °F    
Average Humidity 71    
Maximum Humidity 89    
Minimum Humidity 50    
Precipitation  
Precipitation 0.00 in 0.06 in 0.45 in (2002)
Month to date precipitation T 0.56  
Year to date precipitation 2.13 3.14  
Sea Level Pressure  
Sea Level Pressure 30.07 in    
Wind  
Wind Speed 9 mph (SSW)    
Max Wind Speed 22 mph    
Max Gust Speed 28 mph    
Visibility 9 miles    
Events      
T = Trace of Precipitation, MM = Missing Value Source: NWS Daily Summary

Daily Weather History Graph

Daily Weather History Graph

Search for Another Location

Airport or City:

Astronomy

Mar. 09, 2014 Rise Set
Actual Time 7:13 AM CDT 6:51 PM CDT
Civil Twilight 6:45 AM CDT 7:19 PM CDT
Nautical Twilight 6:13 AM CDT 7:51 PM CDT
Astronomical Twilight 5:40 AM CDT 8:24 PM CDT
Moon 12:39 PM CDT (3/9) 3:43 AM CDT (3/9)
Length of Visible Light 12h 33m
Length of Day
11h 37m
First Quarter, 61% of the Moon is Illuminated
Mar 9
First Quarter
Mar 16
Full
Mar 23
Last Quarter
Mar 30
New
Apr 7
First Quarter

Hourly Weather History & Observations

Time (CDT) Temp. Windchill Dew Point Humidity Pressure Visibility Wind Dir Wind Speed Gust Speed Precip Events Conditions
12:52 AM 18.0 °F - 15.1 °F 88% 30.28 in 8.0 mi Calm Calm - N/A   Clear
1:52 AM 18.0 °F - 15.1 °F 88% 30.27 in 8.0 mi Calm Calm - N/A   Clear
3:52 AM 18.0 °F - 15.1 °F 88% 30.25 in 8.0 mi Calm Calm - N/A   Clear
4:52 AM 19.0 °F - 15.1 °F 85% 30.25 in 8.0 mi Calm Calm - N/A   Clear
5:52 AM 19.9 °F - 16.0 °F 85% 30.25 in 9.0 mi Calm Calm - N/A   Clear
6:52 AM 17.1 °F - 14.0 °F 88% 30.25 in 8.0 mi Calm Calm - N/A   Clear
7:52 AM 19.9 °F - 17.1 °F 89% 30.26 in 5.0 mi Calm Calm - N/A   Clear
8:52 AM 23.0 °F 17.0 °F 19.0 °F 85% 30.24 in 7.0 mi South 4.6 mph - N/A   Clear
9:52 AM 28.0 °F 20.8 °F 19.0 °F 69% 30.23 in 10.0 mi SW 6.9 mph - N/A   Clear
10:52 AM 30.9 °F 22.8 °F 19.0 °F 61% 30.20 in 10.0 mi SSW 9.2 mph - N/A   Clear
11:52 AM 33.1 °F 25.5 °F 18.0 °F 54% 30.19 in 10.0 mi WSW 9.2 mph - N/A   Clear
12:52 PM 36.0 °F 27.1 °F 19.0 °F 50% 30.13 in 10.0 mi SSW 13.8 mph - N/A   Clear
1:52 PM 37.0 °F 28.5 °F 19.9 °F 50% 30.09 in 10.0 mi SW 13.8 mph 25.3 mph N/A   Clear
2:52 PM 37.9 °F 28.5 °F 21.9 °F 53% 30.04 in 10.0 mi SW 17.3 mph - N/A   Clear
3:52 PM 37.9 °F 28.9 °F 23.0 °F 55% 30.01 in 10.0 mi SSW 16.1 mph 27.6 mph N/A   Clear
4:52 PM 37.9 °F 30.0 °F 26.1 °F 62% 29.98 in 10.0 mi SW 12.7 mph - N/A   Clear
5:52 PM 37.9 °F 28.5 °F 27.0 °F 65% 29.93 in 10.0 mi SSW 17.3 mph - N/A   Clear
6:52 PM 37.9 °F 28.2 °F 28.9 °F 70% 29.90 in 10.0 mi SSW 18.4 mph - N/A   Clear
7:52 PM 39.9 °F 31.8 °F 30.9 °F 70% 29.88 in 10.0 mi SSW 15.0 mph 23.0 mph N/A   Clear
8:52 PM 41.0 °F 33.9 °F 32.0 °F 70% 29.88 in 10.0 mi SSW 12.7 mph - N/A   Clear
9:52 PM 41.0 °F 33.1 °F 32.0 °F 70% 29.87 in 10.0 mi SSW 15.0 mph 24.2 mph N/A   Clear
10:52 PM 39.9 °F 31.8 °F 32.0 °F 73% 29.83 in 10.0 mi SSW 15.0 mph - N/A   Clear
11:52 PM 41.0 °F 33.1 °F 30.9 °F 67% 29.81 in 10.0 mi SSW 15.0 mph 24.2 mph N/A   Clear
12:52 AM 42.1 °F 34.9 °F 30.9 °F 65% 29.78 in 10.0 mi SW 13.8 mph 21.9 mph N/A   Clear